Stations météo

réclame
Mon MeteoGroup
Skillinge, Suède (2625): Température de l'air & dewpoint: 08.08.2020 07:00:00 - 14.08.2020 07:00:00 (CEST)Skillinge, Suède (2625): Vitesse du vent & gusts: 08.08.2020 07:00:00 - 14.08.2020 07:00:00 (CEST)Skillinge, Suède (2625): Direction du vent: 08.08.2020 07:00:00 - 14.08.2020 07:00:00 (CEST)Skillinge, Suède (2625): reduced air pressure: 08.08.2020 07:00:00 - 14.08.2020 07:00:00 (CEST)Skillinge, Suède (2625): visibility: 08.08.2020 07:00:00 - 14.08.2020 07:00:00 (CEST)Skillinge, Suède (2625): Quantités de précipitations: 08.08.2020 07:00:00 - 14.08.2020 07:00:00 (CEST)
Date & Time tt [°C] td [°C] ff [km/h] ff [knt] fx [km/h] fx [knt] dd ppp [hPa] vv [km] rr [mm]
14.08.2020 07:00:00 18,6 17,0 22 12 25 14 ENE 1015,4 30 0,0
14.08.2020 06:00:00 18,1 16,4 18 10 21 11 ENE 1015,3 42 0,0
14.08.2020 05:00:00 18,0 16,0 16 9 19 10 ENE 1015,6 50 0,0
14.08.2020 04:00:00 17,9 15,3 14 8 19 10 ENE 1015,8 50 0,0
14.08.2020 03:00:00 18,1 15,2 14 8 17 9 E 1015,9 50 0,0
14.08.2020 02:00:00 18,2 15,1 11 6 15 8 E 1016,6 50 0,0
14.08.2020 01:00:00 17,1 14,7 9 5 12 7 NE 1016,7 50 0,0
14.08.2020 00:00:00 14,9 13,1 5 3 9 5 NNE 1016,9 50 0,0
13.08.2020 23:00:00 17,2 14,0 10 5 15 8 NE 1016,7 50 0,0
13.08.2020 22:00:00 16,8 14,4 8 4 14 8 ENE 1016,4 50 0,0
13.08.2020 21:00:00 17,2 13,3 6 4 9 5 ENE 1016,8 50 0,0
13.08.2020 20:00:00 18,0 13,3 2 1 9 5 SE 1017,1 50 0,0
13.08.2020 19:00:00 18,8 13,2 7 4 12 6 ESE 1017,1 50 0,0
13.08.2020 18:00:00 19,5 14,1 9 5 16 8 E 1017,3 42 0,0
13.08.2020 17:00:00 19,6 13,5 11 6 15 8 E 1017,9 44 0,0
13.08.2020 16:00:00 19,7 14,1 12 7 18 10 ENE 1018,1 33 0,0
13.08.2020 15:00:00 20,0 14,6 15 8 19 10 ENE 1018,3 43 0,0
13.08.2020 14:00:00 19,9 13,8 14 7 18 10 ENE 1018,8 36 0,0
13.08.2020 13:00:00 20,0 13,5 13 7 18 10 ENE 1019,0 39 0,0
13.08.2020 12:00:00 19,7 14,1 14 7 17 9 ENE 1019,1 31 0,0
13.08.2020 11:00:00 20,1 14,2 14 8 23 12 E 1019,2 39 0,0
13.08.2020 10:00:00 19,5 14,1 14 8 19 11 E 1019,3 40 0,0
13.08.2020 09:00:00 18,9 14,4 17 9 22 12 E 1019,1 41 0,0
13.08.2020 08:00:00 18,7 15,0 18 10 21 11 E 1019,1 38 0,0
13.08.2020 07:00:00 18,3 14,8 17 9 22 12 ENE 1019,1 43 0,0
13.08.2020 06:00:00 18,0 14,9 14 8 21 11 E 1019,4 50 0,0
13.08.2020 05:00:00 18,1 15,5 15 8 18 10 E 1019,5 50 0,0
13.08.2020 04:00:00 17,9 15,5 13 7 16 9 E 1020,0 50 0,0
13.08.2020 03:00:00 17,9 15,0 13 7 16 9 E 1020,2 50 0,0
13.08.2020 02:00:00 18,0 14,9 14 7 16 9 E 1020,5 50 0,0
13.08.2020 01:00:00 17,9 15,0 14 8 18 10 E 1020,8 50 0,0
13.08.2020 00:00:00 18,0 14,5 14 8 20 11 E 1021,0 50 0,0
12.08.2020 23:00:00 18,1 14,1 15 8 18 10 E 1020,9 50 0,0
12.08.2020 22:00:00 18,2 13,3 14 7 17 9 E 1021,1 50 0,0
12.08.2020 21:00:00 18,1 13,8 13 7 16 9 E 1021,2 50 0,0
12.08.2020 20:00:00 18,3 13,6 13 7 16 9 E 1021,5 50 0,0
12.08.2020 19:00:00 18,6 14,1 13 7 18 10 E 1021,9 50 0,0
12.08.2020 18:00:00 19,1 14,6 14 7 17 9 E 1022,4 40 0,0
12.08.2020 17:00:00 19,5 14,1 11 6 18 10 E 1023,0 38 0,0
12.08.2020 16:00:00 20,0 14,8 15 8 22 12 E 1023,2 37 0,0
12.08.2020 15:00:00 20,1 14,9 17 9 20 11 E 1023,6 40 0,0
12.08.2020 14:00:00 20,1 15,1 16 9 22 12 E 1024,0 40 0,0
12.08.2020 13:00:00 19,8 14,8 16 9 21 11 E 1024,2 40 0,0
12.08.2020 12:00:00 19,7 15,1 16 9 21 12 E 1024,1 38 0,0
12.08.2020 11:00:00 19,8 15,0 18 10 21 11 E 1024,2 38 0,0
12.08.2020 10:00:00 19,4 15,3 14 8 18 10 E 1024,4 39 0,0
12.08.2020 09:00:00 19,1 15,2 13 7 20 11 E 1024,3 42 0,0
12.08.2020 08:00:00 18,4 15,3 16 9 21 11 E 1024,0 44 0,0
12.08.2020 07:00:00 18,2 15,1 16 8 21 12 E 1024,3 49 0,0
12.08.2020 06:00:00 17,8 14,7 18 10 21 12 E 1024,1 50 0,0
12.08.2020 05:00:00 17,8 15,0 18 10 21 12 E 1024,0 50 0,0
12.08.2020 04:00:00 17,8 15,2 15 8 18 10 E 1024,4 50 0,0
12.08.2020 03:00:00 18,1 15,4 16 8 19 10 E 1024,4 50 0,0
12.08.2020 02:00:00 18,1 15,2 16 9 21 11 E 1024,5 50 0,0
12.08.2020 01:00:00 18,3 15,5 18 10 23 12 E 1024,5 48 0,0
12.08.2020 00:00:00 18,3 15,4 17 9 23 12 E 1024,6 49 0,0
11.08.2020 23:00:00 18,3 15,7 21 11 25 13 E 1024,2 50 0,0
11.08.2020 22:00:00 18,3 15,7 21 11 26 14 E 1024,3 47 0,0
11.08.2020 21:00:00 18,4 16,0 19 11 28 15 E 1024,4 39 0,0
11.08.2020 20:00:00 18,5 15,7 22 12 27 15 E 1024,2 40 0,0
11.08.2020 19:00:00 18,7 15,9 24 13 29 16 E 1024,2 39 0,0
11.08.2020 18:00:00 19,1 16,1 22 12 28 15 ENE 1024,5 32 0,0
11.08.2020 17:00:00 19,5 16,0 22 12 26 14 ENE 1024,8 41 0,0
11.08.2020 16:00:00 19,8 16,2 22 12 28 15 ENE 1025,0 32 0,0
11.08.2020 15:00:00 19,9 16,3 24 13 30 16 ENE 1025,3 31 0,0
11.08.2020 14:00:00 19,5 15,8 27 15 31 17 ENE 1025,4 37 0,0
11.08.2020 13:00:00 19,8 15,7 26 14 31 17 E 1025,4 32 0,0
11.08.2020 12:00:00 19,6 15,5 25 14 31 17 ENE 1025,4 36 0,0
11.08.2020 11:00:00 19,7 15,4 25 13 31 17 ENE 1025,2 38 0,0
11.08.2020 10:00:00 19,5 15,8 25 13 29 16 E 1024,8 29 0,0
11.08.2020 09:00:00 19,3 16,0 23 12 28 15 ENE 1024,7 44 0,0
11.08.2020 08:00:00 18,9 15,6 24 13 30 16 ENE 1024,4 40 0,0
11.08.2020 07:00:00 18,7 15,6 23 13 30 16 ENE 1024,0 31 0,0
11.08.2020 06:00:00 18,6 15,5 23 12 27 15 ENE 1023,9 36 0,0
11.08.2020 05:00:00 18,5 15,9 21 11 27 15 ENE 1023,7 39 0,0
11.08.2020 04:00:00 18,5 16,1 22 12 28 15 ENE 1023,7 41 0,0
11.08.2020 03:00:00 18,6 16,4 24 13 29 16 ENE 1023,9 36 0,0
11.08.2020 02:00:00 18,6 16,6 21 12 24 13 ENE 1023,8 36 0,0
11.08.2020 01:00:00 18,8 16,2 20 11 24 13 ENE 1023,7 33 0,0
11.08.2020 00:00:00 18,9 16,1 16 9 28 15 ENE 1023,5 35 0,0
10.08.2020 23:00:00 19,2 15,9 22 12 29 16 E 1022,9 34 0,0
10.08.2020 22:00:00 19,2 16,1 21 11 29 15 E 1022,7 33 0,0
10.08.2020 21:00:00 19,0 16,4 19 11 26 14 E 1022,4 30 0,0
10.08.2020 20:00:00 19,0 17,1 21 11 35 19 E 1022,2 24 0,0
10.08.2020 19:00:00 19,3 17,8 29 15 38 20 ENE 1021,7 21 0,0
10.08.2020 18:00:00 19,4 17,5 26 14 33 18 NE 1022,0 23 0,0
10.08.2020 17:00:00 20,0 17,9 24 13 31 17 NE 1022,3 23 0,0
10.08.2020 16:00:00 19,6 17,6 19 11 32 17 ENE 1022,3 20 0,0
10.08.2020 15:00:00 19,5 17,6 26 14 35 19 E 1022,5 17 0,0
10.08.2020 14:00:00 19,5 17,6 28 15 35 19 ENE 1022,5 13 0,0
10.08.2020 13:00:00 19,5 17,6 29 16 35 19 ENE 1022,4 9 0,0
10.08.2020 12:00:00 20,0 18,1 29 15 33 18 ENE 1021,9 9 0,0
10.08.2020 11:00:00 19,8 18,5 23 12 30 16 ENE 1021,8 8 0,0
10.08.2020 10:00:00 19,6 18,6 25 14 31 17 NE 1021,1 2,2 0,0
10.08.2020 09:00:00 20,4 18,5 22 12 27 14 NE 1020,9 17 0,0
10.08.2020 08:00:00 20,2 18,1 20 11 27 15 NE 1020,8 25 0,0
10.08.2020 07:00:00 19,9 17,9 16 9 24 13 NE 1020,5 29 0,0
10.08.2020 06:00:00 19,7 17,8 14 8 22 12 NE 1020,2 28 0,0
10.08.2020 05:00:00 19,7 17,9 13 7 23 13 NE 1020,0 26 0,0
10.08.2020 04:00:00 19,7 17,8 14 8 21 11 NNE 1020,1 21 0,0
10.08.2020 03:00:00 19,7 18,2 12 6 19 10 NE 1019,9 17 0,0
10.08.2020 02:00:00 19,5 18,3 11 6 19 10 NNE 1019,7 14 0,0
10.08.2020 01:00:00 19,5 18,2 11 6 18 10 NNE 1019,6 12 0,0
10.08.2020 00:00:00 19,5 17,6 8 5 13 7 NNE 1019,7 18 0,0
09.08.2020 23:00:00 19,3 16,5 4 2 7 4 NNE 1020,0 18 0,0
09.08.2020 22:00:00 19,1 16,7 3 2 13 7 NW 1019,6 18 0,0
09.08.2020 21:00:00 20,5 18,4 4 2 8 4 N 1019,5 27 0,0
09.08.2020 20:00:00 20,9 18,7 4 2 8 4 ENE 1019,2 24 0,0
09.08.2020 19:00:00 21,8 18,4 5 3 8 4 ENE 1018,9 33 0,0
09.08.2020 18:00:00 22,7 18,5 5 3 10 5 ENE 1018,7 25 0,0
09.08.2020 17:00:00 22,3 18,5 7 4 13 7 NE 1018,9 29 0,0
09.08.2020 16:00:00 22,4 18,0 9 5 16 9 ENE 1019,2 27 0,0
09.08.2020 15:00:00 22,6 18,2 14 8 21 12 ENE 1019,8 25 0,0
09.08.2020 14:00:00 22,5 18,1 19 11 23 13 NE 1020,1 21 0,0
09.08.2020 13:00:00 22,4 17,5 22 12 24 13 NE 1020,2 20 0,0
09.08.2020 12:00:00 24,0 17,0 20 11 23 13 NE 1020,3 26 0,0
09.08.2020 11:00:00 23,5 18,2 15 8 19 10 ENE 1020,3 23 0,0
09.08.2020 10:00:00 22,9 17,1 14 7 19 11 NE 1020,2 35 0,0
09.08.2020 09:00:00 21,0 17,2 10 6 24 13 NNE 1020,4 22 0,0
09.08.2020 08:00:00 20,9 17,1 14 8 21 11 NE 1020,3 21 0,0
09.08.2020 07:00:00 20,0 17,6 11 6 21 11 NNE 1020,1 15 0,0
09.08.2020 06:00:00 18,5 17,3 8 4 13 7 NNE 1020,0 8 0,0
09.08.2020 05:00:00 18,7 17,5 8 5 14 7 NNE 1019,9 7 0,0
09.08.2020 04:00:00 17,9 16,8 4 2 13 7 N 1020,0 8 0,0
09.08.2020 03:00:00 18,9 17,4 6 3 12 6 NNE 1020,0 11 0,0
09.08.2020 02:00:00 18,5 17,3 2 1 8 4 N 1020,4 6 0,0
09.08.2020 01:00:00 17,8 16,5 3 2 6 3 N 1020,5 8 0,0
09.08.2020 00:00:00 17,9 16,8 0 0 5 3 N 1020,4 6 0,0
08.08.2020 23:00:00 18,4 16,9 0 0 4 2 N 1020,5 9 0,0
08.08.2020 22:00:00 18,6 16,8 2 1 6 3 NE 1020,7 14 0,0
08.08.2020 21:00:00 20,0 18,0 0 0 5 3 N 1020,7 14 0,0
08.08.2020 20:00:00 21,4 18,0 2 1 11 6 S 1020,6 20 0,0
08.08.2020 19:00:00 22,1 18,1 5 3 11 6 SSW 1020,7 19 0,0
08.08.2020 18:00:00 22,5 18,1 5 3 9 5 S 1020,5 17 0,0
08.08.2020 17:00:00 22,1 18,3 5 3 10 6 ESE 1020,9 17 0,0
08.08.2020 16:00:00 22,3 17,7 6 3 12 6 SE 1021,2 16 0,0
08.08.2020 15:00:00 21,9 18,9 5 3 12 6 E 1021,3 14 0,0
08.08.2020 14:00:00 21,5 18,5 10 5 13 7 E 1021,5 17 0,0
08.08.2020 13:00:00 20,8 18,0 12 7 14 8 ENE 1021,7 19 0,0
08.08.2020 12:00:00 21,3 18,5 13 7 16 9 NE 1021,9 24 0,0
08.08.2020 11:00:00 21,0 17,7 14 8 17 9 NE 1021,9 20 0,0
08.08.2020 10:00:00 19,8 17,6 16 9 18 10 NE 1022,0 23 0,0
08.08.2020 09:00:00 20,5 17,7 13 7 17 9 NE 1022,0 26 0,0
08.08.2020 08:00:00 19,7 17,7 9 5 16 9 NNE 1022,0 25 0,0
08.08.2020 07:00:00 18,8 17,5 11 6 19 10 NNE 1022,0 21 0,0

tt = Température de l'air
td = dewpoint
ff = Vitesse du vent
fx = gusts
dd = Direction du vent
ppp = reduced air pressure
vv = visibility
rr = Quantités de précipitations

stations d'obs. à proximité